Weather History for KPQL - September, 2013

Change the Weather History Date:

Monday, September 23, 2013

  Actual Average Record
Temperature  
Mean Temperature 78 °F -  
Max Temperature 89 °F 86 °F 94 °F (1978)
Min Temperature 66 °F 68 °F 45 °F (1999)
Cooling Degree Days 12    
Growing Degree Days 28 (Base 50)    
Moisture  
Dew Point 71 °F    
Average Humidity 79    
Maximum Humidity 94    
Minimum Humidity 61    
Precipitation  
Precipitation 0.00 in - - ()
Sea Level Pressure  
Sea Level Pressure 29.84 in    
Wind  
Wind Speed 3 mph (East)    
Max Wind Speed 10 mph    
Max Gust Speed 16 mph    
Visibility 10 miles    
Events      
Averages and records for this station are not official NWS values.
T = Trace of Precipitation, MM = Missing Value Source: NWS Daily Summary

Daily Weather History Graph

Daily Weather History Graph

Search for Another Location

Airport or City:

Trip Planner

Search our weather history database for the weather conditions in past years. The results will help you decide how hot, cold, wet, or windy it might be!

Date:

Astronomy

Sep. 23, 2013 Rise Set
Actual Time 6:43 AM CDT 6:49 PM CDT
Civil Twilight 6:19 AM CDT 7:13 PM CDT
Nautical Twilight 5:51 AM CDT 7:41 PM CDT
Astronomical Twilight 5:23 AM CDT 8:09 PM CDT
Moon 9:40 PM CDT (9/23) 10:43 AM CDT (9/23)
Length of Visible Light 12h 53m
Length of Day
12h 05m
Waning Gibbous, 81% of the Moon is Illuminated
Sep 23
Waning Gibbous
Sep 26
Last Quarter
Oct 4
New
Oct 11
First Quarter
Oct 18
Full

Hourly Weather History & Observations

Time (CDT) Temp. Heat Index Dew Point Humidity Pressure Visibility Wind Dir Wind Speed Gust Speed Precip Events Conditions
12:53 AM 70.0 °F - 64.0 °F 81% 29.81 in 10.0 mi Calm Calm - N/A   Clear
1:53 AM 66.9 °F - 64.9 °F 93% 29.81 in 10.0 mi Calm Calm - N/A   Clear
2:53 AM 66.9 °F - 64.0 °F 90% 29.81 in 10.0 mi Calm Calm - N/A   Clear
3:53 AM 66.9 °F - 63.0 °F 87% 29.81 in 10.0 mi Calm Calm - N/A   Partly Cloudy
4:53 AM 66.9 °F - 64.0 °F 90% 29.81 in 10.0 mi North 4.6 mph - N/A   Mostly Cloudy
5:53 AM 68.0 °F - 64.0 °F 87% 29.83 in 10.0 mi North 3.5 mph - N/A   Overcast
6:53 AM 66.9 °F - 64.0 °F 90% 29.85 in 10.0 mi North 3.5 mph - N/A   Mostly Cloudy
7:53 AM 69.1 °F - 64.0 °F 84% 29.86 in 10.0 mi NNE 4.6 mph - N/A   Overcast
8:53 AM 73.9 °F - 66.9 °F 79% 29.86 in 10.0 mi ENE 3.5 mph - N/A   Clear
9:53 AM 81.0 °F 85.2 °F 72.0 °F 74% 29.86 in 10.0 mi Calm Calm - N/A   Clear
10:53 AM 84.9 °F 91.4 °F 73.0 °F 67% 29.86 in 10.0 mi Variable 4.6 mph - N/A   Clear
11:53 AM 87.1 °F 94.5 °F 73.0 °F 63% 29.86 in 10.0 mi South 4.6 mph - N/A   Partly Cloudy
12:53 PM 87.1 °F 96.3 °F 75.0 °F 67% 29.85 in 10.0 mi SSE 6.9 mph 16.1 mph N/A   Partly Cloudy
1:53 PM 88.0 °F 95.6 °F 73.0 °F 61% 29.83 in 10.0 mi SE 6.9 mph - N/A   Partly Cloudy
2:53 PM 86.0 °F 93.8 °F 73.9 °F 67% 29.82 in 10.0 mi SE 9.2 mph - N/A   Scattered Clouds
3:22 PM 89.6 °F 99.8 °F 75.2 °F 62% 29.81 in 10.0 mi SE 10.4 mph - N/A   Overcast
3:42 PM 87.8 °F 97.6 °F 75.2 °F 66% 29.81 in 10.0 mi SE 8.1 mph - N/A   Mostly Cloudy
3:53 PM 88.0 °F 97.5 °F 75.0 °F 65% 29.81 in 10.0 mi SSE 10.4 mph - N/A   Scattered Clouds
4:53 PM 87.1 °F 96.3 °F 75.0 °F 67% 29.82 in 10.0 mi SE 10.4 mph - N/A   Scattered Clouds
5:53 PM 84.0 °F 92.6 °F 75.9 °F 76% 29.83 in 10.0 mi SE 6.9 mph - N/A   Partly Cloudy
6:53 PM 82.0 °F 90.2 °F 77.0 °F 85% 29.84 in 10.0 mi Calm Calm - N/A   Clear
7:53 PM 80.1 °F 85.4 °F 75.9 °F 87% 29.84 in 10.0 mi East 3.5 mph - N/A   Clear
8:53 PM 77.0 °F - 75.0 °F 94% 29.87 in 10.0 mi Calm Calm - N/A   Clear
9:53 PM 77.0 °F - 75.0 °F 94% 29.88 in 10.0 mi Calm Calm - N/A   Mostly Cloudy
10:53 PM 78.1 °F - 75.9 °F 93% 29.88 in 10.0 mi NE 3.5 mph - N/A   Overcast
11:53 PM 77.0 °F - 75.0 °F 94% 29.87 in 10.0 mi East 4.6 mph - N/A   Scattered Clouds